Time,TemperatureF,DewpointF,PressureIn,WindDirection,WindDirectionDegrees,WindSpeedMPH,WindSpeedGustMPH,Humidity,HourlyPrecipIn,Conditions,Clouds,dailyrainin,SolarRadiationWatts/m^2,SoftwareType,DateUTC
2013-01-12 00:22:00,49.0,-29.0,-100.00,SE,129,11.0,13.0,3,0.00,,,0.01,0.000000,,2013-01-12 10:22:00,
2013-01-12 00:32:00,49.0,-29.0,-100.00,SE,129,11.0,13.0,3,0.00,,,0.01,0.000000,,2013-01-12 10:32:00,
2013-01-12 00:42:00,49.0,-29.0,-100.00,SE,129,11.0,13.0,3,0.00,,,0.01,0.000000,,2013-01-12 10:42:00,
2013-01-12 00:52:00,49.0,-29.0,-100.00,SE,129,11.0,13.0,3,0.00,,,0.01,0.000000,,2013-01-12 10:52:00,
2013-01-12 01:22:00,49.0,-29.0,-100.00,SE,143,13.0,15.0,3,0.00,,,0.01,0.000000,,2013-01-12 11:22:00,
2013-01-12 01:32:00,49.0,-29.0,-100.00,SE,143,13.0,15.0,3,0.00,,,0.01,0.000000,,2013-01-12 11:32:00,
2013-01-12 01:42:00,49.0,-29.0,-100.00,SE,143,13.0,15.0,3,0.00,,,0.01,0.000000,,2013-01-12 11:42:00,
2013-01-12 01:52:00,49.0,-29.0,-100.00,SE,143,13.0,15.0,3,0.00,,,0.01,0.000000,,2013-01-12 11:52:00,
2013-01-12 02:22:00,50.0,-28.0,-100.00,SE,130,13.0,16.0,3,0.00,,,0.01,0.000000,,2013-01-12 12:22:00,
2013-01-12 02:32:00,50.0,-28.0,-100.00,SE,130,13.0,16.0,3,0.00,,,0.01,0.000000,,2013-01-12 12:32:00,
2013-01-12 02:42:00,50.0,-28.0,-100.00,SE,130,13.0,16.0,3,0.00,,,0.01,0.000000,,2013-01-12 12:42:00,
2013-01-12 02:52:00,50.0,-28.0,-100.00,SE,130,13.0,16.0,3,0.00,,,0.01,0.000000,,2013-01-12 12:52:00,
2013-01-12 03:22:00,51.0,-27.0,-100.00,ESE,117,8.0,18.0,3,0.00,,,0.01,0.000000,,2013-01-12 13:22:00,
2013-01-12 03:33:00,51.0,-27.0,-100.00,ESE,117,8.0,18.0,3,0.00,,,0.01,0.000000,,2013-01-12 13:33:00,
2013-01-12 03:42:00,51.0,-27.0,-100.00,ESE,117,8.0,18.0,3,0.00,,,0.01,0.000000,,2013-01-12 13:42:00,
2013-01-12 03:52:00,51.0,-27.0,-100.00,ESE,117,8.0,18.0,3,0.00,,,0.01,0.000000,,2013-01-12 13:52:00,
2013-01-12 04:22:00,46.0,-31.0,-100.00,SE,126,12.0,13.0,3,0.00,,,0.01,0.000000,,2013-01-12 14:22:00,
2013-01-12 04:32:00,46.0,-31.0,-100.00,SE,126,12.0,13.0,3,0.00,,,0.01,0.000000,,2013-01-12 14:32:00,
2013-01-12 04:43:00,46.0,-31.0,-100.00,SE,126,12.0,13.0,3,0.00,,,0.01,0.000000,,2013-01-12 14:43:00,
2013-01-12 04:53:00,46.0,-31.0,-100.00,SE,126,12.0,13.0,3,0.00,,,0.01,0.000000,,2013-01-12 14:53:00,
2013-01-12 05:22:00,48.0,-29.0,-100.00,SE,133,13.0,14.0,3,0.00,,,0.01,0.000000,,2013-01-12 15:22:00,
2013-01-12 05:33:00,48.0,-29.0,-100.00,SE,133,13.0,14.0,3,0.00,,,0.01,0.000000,,2013-01-12 15:33:00,
2013-01-12 05:42:00,48.0,-29.0,-100.00,SE,133,13.0,14.0,3,0.00,,,0.01,0.000000,,2013-01-12 15:42:00,
2013-01-12 05:52:00,48.0,-29.0,-100.00,SE,133,13.0,14.0,3,0.00,,,0.01,0.000000,,2013-01-12 15:52:00,
2013-01-12 06:23:00,48.0,-29.0,-100.00,SE,132,13.0,17.0,3,0.00,,,0.01,0.000000,,2013-01-12 16:23:00,
2013-01-12 06:33:00,48.0,-29.0,-100.00,SE,132,13.0,17.0,3,0.00,,,0.01,0.000000,,2013-01-12 16:33:00,
2013-01-12 06:42:00,48.0,-29.0,-100.00,SE,132,13.0,17.0,3,0.00,,,0.01,0.000000,,2013-01-12 16:42:00,
2013-01-12 06:52:00,48.0,-29.0,-100.00,SE,132,13.0,17.0,3,0.00,,,0.01,0.000000,,2013-01-12 16:52:00,
2013-01-12 07:22:00,46.0,-31.0,-100.00,SE,139,14.0,17.0,3,0.00,,,0.01,0.000000,,2013-01-12 17:22:00,
2013-01-12 07:33:00,46.0,-31.0,-100.00,SE,139,14.0,17.0,3,0.00,,,0.01,0.000000,,2013-01-12 17:33:00,
2013-01-12 07:42:00,46.0,-31.0,-100.00,SE,139,14.0,17.0,3,0.00,,,0.01,0.000000,,2013-01-12 17:42:00,
2013-01-12 07:53:00,46.0,-31.0,-100.00,SE,139,14.0,17.0,3,0.00,,,0.01,0.000000,,2013-01-12 17:53:00,
2013-01-12 08:22:00,52.0,-27.0,-100.00,SE,131,12.0,19.0,3,0.01,,,0.02,68.000000,,2013-01-12 18:22:00,
2013-01-12 08:33:00,52.0,-27.0,-100.00,SE,131,12.0,19.0,3,0.01,,,0.02,68.000000,,2013-01-12 18:33:00,
2013-01-12 08:42:00,52.0,-27.0,-100.00,SE,131,12.0,19.0,3,0.01,,,0.02,68.000000,,2013-01-12 18:42:00,
2013-01-12 08:52:00,52.0,-27.0,-100.00,SE,131,12.0,19.0,3,0.01,,,0.02,68.000000,,2013-01-12 18:52:00,
2013-01-12 09:22:00,66.0,-17.0,-100.00,SW,230,2.0,16.0,3,0.00,,,0.02,303.000000,,2013-01-12 19:22:00,
2013-01-12 09:33:00,66.0,-17.0,-100.00,SW,230,2.0,16.0,3,0.00,,,0.02,303.000000,,2013-01-12 19:33:00,
2013-01-12 09:42:00,66.0,-17.0,-100.00,SW,230,2.0,16.0,3,0.00,,,0.02,303.000000,,2013-01-12 19:42:00,
2013-01-12 09:52:00,66.0,-17.0,-100.00,SW,230,2.0,16.0,3,0.00,,,0.02,303.000000,,2013-01-12 19:52:00,
2013-01-12 10:22:00,69.0,-15.0,-100.00,North,354,5.0,8.0,3,0.00,,,0.02,535.000000,,2013-01-12 20:22:00,
2013-01-12 10:32:00,69.0,-15.0,-100.00,North,354,5.0,8.0,3,0.00,,,0.02,535.000000,,2013-01-12 20:32:00,
2013-01-12 10:42:00,69.0,-15.0,-100.00,North,354,5.0,8.0,3,0.00,,,0.02,535.000000,,2013-01-12 20:42:00,
2013-01-12 10:52:00,69.0,-15.0,-100.00,North,354,5.0,8.0,3,0.00,,,0.02,535.000000,,2013-01-12 20:52:00,
2013-01-12 11:22:00,70.0,-14.0,-100.00,ENE,64,7.0,11.0,3,0.00,,,0.02,726.000000,,2013-01-12 21:22:00,
2013-01-12 11:32:00,70.0,-14.0,-100.00,ENE,64,7.0,11.0,3,0.00,,,0.02,726.000000,,2013-01-12 21:32:00,
2013-01-12 11:42:00,70.0,-14.0,-100.00,ENE,64,7.0,11.0,3,0.00,,,0.02,726.000000,,2013-01-12 21:42:00,
2013-01-12 11:52:00,70.0,-14.0,-100.00,ENE,64,7.0,11.0,3,0.00,,,0.02,726.000000,,2013-01-12 21:52:00,
2013-01-12 12:22:00,69.0,-15.0,-100.00,NNW,328,8.0,16.0,3,0.00,,,0.02,852.000000,,2013-01-12 22:22:00,
2013-01-12 12:32:00,69.0,-15.0,-100.00,NNW,328,8.0,16.0,3,0.00,,,0.02,852.000000,,2013-01-12 22:32:00,
2013-01-12 12:43:00,69.0,-15.0,-100.00,NNW,328,8.0,16.0,3,0.00,,,0.02,852.000000,,2013-01-12 22:43:00,
2013-01-12 12:52:00,69.0,-15.0,-100.00,NNW,328,8.0,16.0,3,0.00,,,0.02,852.000000,,2013-01-12 22:52:00,
2013-01-12 14:22:00,67.0,-16.0,-100.00,NW,312,9.0,18.0,3,-99.99,,,0.02,631.000000,,2013-01-13 00:22:00,
2013-01-12 14:32:00,67.0,-16.0,-100.00,NW,312,9.0,18.0,3,-99.99,,,0.02,631.000000,,2013-01-13 00:32:00,
2013-01-12 14:42:00,67.0,-16.0,-100.00,NW,312,9.0,18.0,3,-99.99,,,0.02,631.000000,,2013-01-13 00:42:00,
2013-01-12 14:52:00,67.0,-16.0,-100.00,NW,312,9.0,18.0,3,-99.99,,,0.02,631.000000,,2013-01-13 00:52:00,
2013-01-12 15:22:00,67.0,-16.0,-100.00,NNW,333,10.0,20.0,3,0.00,,,0.02,614.000000,,2013-01-13 01:22:00,
2013-01-12 15:32:00,67.0,-16.0,-100.00,NNW,333,10.0,20.0,3,0.00,,,0.02,614.000000,,2013-01-13 01:32:00,
2013-01-12 15:42:00,67.0,-16.0,-100.00,NNW,333,10.0,20.0,3,0.00,,,0.02,614.000000,,2013-01-13 01:42:00,
2013-01-12 15:52:00,67.0,-16.0,-100.00,NNW,333,10.0,20.0,3,0.00,,,0.02,614.000000,,2013-01-13 01:52:00,
2013-01-12 16:22:00,63.0,-19.0,-100.00,NNW,327,10.0,18.0,3,0.00,,,0.02,362.000000,,2013-01-13 02:22:00,
2013-01-12 16:32:00,63.0,-19.0,-100.00,NNW,327,10.0,18.0,3,0.00,,,0.02,362.000000,,2013-01-13 02:32:00,
2013-01-12 16:42:00,63.0,-19.0,-100.00,NNW,327,10.0,18.0,3,0.00,,,0.02,362.000000,,2013-01-13 02:42:00,
2013-01-12 16:52:00,63.0,-19.0,-100.00,NNW,327,10.0,18.0,3,0.00,,,0.02,362.000000,,2013-01-13 02:52:00,
2013-01-12 17:22:00,61.0,-20.0,-100.00,NNW,335,8.0,16.0,3,0.00,,,0.01,25.000000,,2013-01-13 03:22:00,
2013-01-12 17:32:00,61.0,-20.0,-100.00,NNW,335,8.0,16.0,3,0.00,,,0.01,25.000000,,2013-01-13 03:32:00,
2013-01-12 17:42:00,61.0,-20.0,-100.00,NNW,335,8.0,16.0,3,0.00,,,0.01,25.000000,,2013-01-13 03:42:00,
2013-01-12 17:52:00,61.0,-20.0,-100.00,NNW,335,8.0,16.0,3,0.00,,,0.01,25.000000,,2013-01-13 03:52:00,
2013-01-12 18:22:00,58.0,-22.0,-100.00,NNW,332,5.0,12.0,3,0.00,,,0.01,9.000000,,2013-01-13 04:22:00,
2013-01-12 18:32:00,58.0,-22.0,-100.00,NNW,332,5.0,12.0,3,0.00,,,0.01,9.000000,,2013-01-13 04:32:00,
2013-01-12 18:42:00,58.0,-22.0,-100.00,NNW,332,5.0,12.0,3,0.00,,,0.01,9.000000,,2013-01-13 04:42:00,
2013-01-12 18:52:00,58.0,-22.0,-100.00,NNW,332,5.0,12.0,3,0.00,,,0.01,9.000000,,2013-01-13 04:52:00,
2013-01-12 19:22:00,59.0,-22.0,-100.00,North,352,3.0,10.0,3,0.00,,,0.01,0.000000,,2013-01-13 05:22:00,
2013-01-12 19:32:00,59.0,-22.0,-100.00,North,352,3.0,10.0,3,0.00,,,0.01,0.000000,,2013-01-13 05:32:00,
2013-01-12 19:42:00,59.0,-22.0,-100.00,North,352,3.0,10.0,3,0.00,,,0.01,0.000000,,2013-01-13 05:42:00,
2013-01-12 19:52:00,59.0,-22.0,-100.00,North,352,3.0,10.0,3,0.00,,,0.01,0.000000,,2013-01-13 05:52:00,
2013-01-12 20:22:00,56.0,-24.0,-100.00,ESE,113,3.0,7.0,3,0.00,,,-99.99,0.000000,,2013-01-13 06:22:00,
2013-01-12 20:32:00,56.0,-24.0,-100.00,ESE,113,3.0,7.0,3,0.00,,,-99.99,0.000000,,2013-01-13 06:32:00,
2013-01-12 20:42:00,56.0,-24.0,-100.00,ESE,113,3.0,7.0,3,0.00,,,-99.99,0.000000,,2013-01-13 06:42:00,
2013-01-12 20:52:00,56.0,-24.0,-100.00,ESE,113,3.0,7.0,3,0.00,,,-99.99,0.000000,,2013-01-13 06:52:00,
2013-01-12 21:22:00,58.0,-22.0,-100.00,South,179,6.0,6.0,3,0.00,,,0.01,0.000000,,2013-01-13 07:22:00,
2013-01-12 21:32:00,58.0,-22.0,-100.00,South,179,6.0,6.0,3,0.00,,,0.01,0.000000,,2013-01-13 07:32:00,
2013-01-12 21:42:00,58.0,-22.0,-100.00,South,179,6.0,6.0,3,0.00,,,0.01,0.000000,,2013-01-13 07:42:00,
2013-01-12 21:52:00,58.0,-22.0,-100.00,South,179,6.0,6.0,3,0.00,,,0.01,0.000000,,2013-01-13 07:52:00,
2013-01-12 22:22:00,52.0,-27.0,-100.00,SE,132,8.0,8.0,3,0.00,,,0.01,0.000000,,2013-01-13 08:22:00,
2013-01-12 22:32:00,52.0,-27.0,-100.00,SE,132,8.0,8.0,3,0.00,,,0.01,0.000000,,2013-01-13 08:32:00,
2013-01-12 22:42:00,52.0,-27.0,-100.00,SE,132,8.0,8.0,3,0.00,,,0.01,0.000000,,2013-01-13 08:42:00,
2013-01-12 22:52:00,52.0,-27.0,-100.00,SE,132,8.0,8.0,3,0.00,,,0.01,0.000000,,2013-01-13 08:52:00,
2013-01-12 23:22:00,52.0,-27.0,-100.00,SE,133,9.0,11.0,3,0.00,,,-99.99,0.000000,,2013-01-13 09:22:00,
2013-01-12 23:32:00,52.0,-27.0,-100.00,SE,133,9.0,11.0,3,0.00,,,-99.99,0.000000,,2013-01-13 09:32:00,
2013-01-12 23:42:00,52.0,-27.0,-100.00,SE,133,9.0,11.0,3,0.00,,,-99.99,0.000000,,2013-01-13 09:42:00,
2013-01-12 23:52:00,52.0,-27.0,-100.00,SE,133,9.0,11.0,3,0.00,,,-99.99,0.000000,,2013-01-13 09:52:00,